• In India
  • List of Countries
  • For 7 days
  • Water Temperature
  • Satellite Maps
  • Weather Map
  • Weather Widgets
  • user-avatar
    Login

    Hourly Weather Czerwionka-Leszczyny

    Today, 25 November, Saturday

    Time Temperature Precipitation Wind Pressure Humidity
    00:00 +4°C° 0 mm 4 mps 736 mmHg 84%
    01:00 +4°C° 0 mm 3 mps 736 mmHg 85%
    02:00 +4°C° 0 mm 3 mps 736 mmHg 85%
    03:00 +4°C° 0 mm 3 mps 736 mmHg 86%
    04:00 +4°C° 0 mm 3 mps 735 mmHg 86%
    05:00 +4°C° 0 mm 3 mps 735 mmHg 87%
    06:00 +4°C° 0 mm 3 mps 734 mmHg 88%
    07:00 +4°C° 0 mm 3 mps 734 mmHg 89%
    08:00 +5°C° 0 mm 4 mps 733 mmHg 85%
    09:00 +6°C° 0 mm 4 mps 733 mmHg 82%
    10:00 +7°C° 0 mm 5 mps 732 mmHg 78%
    11:00 +7°C° 0 mm 5 mps 731 mmHg 77%
    12:00 +8°C° 0 mm 5 mps 731 mmHg 75%
    13:00 +8°C° 0 mm 6 mps 730 mmHg 74%
    14:00 +8°C° 0.1 mm 5 mps 730 mmHg 77%
    15:00 +8°C° 0.1 mm 4 mps 730 mmHg 79%
    16:00 +7°C° 0.1 mm 4 mps 730 mmHg 82%
    17:00 +7°C° 0.3 mm 4 mps 730 mmHg 84%
    18:00 +7°C° 0.3 mm 4 mps 730 mmHg 86%
    19:00 +7°C° 0.3 mm 4 mps 730 mmHg 88%
    20:00 +8°C° 0.3 mm 3 mps 731 mmHg 88%
    21:00 +7°C° 0.3 mm 3 mps 731 mmHg 89%
    22:00 +7°C° 0.3 mm 3 mps 732 mmHg 89%
    23:00 +7°C° 0.1 mm 2 mps 732 mmHg 89%

    Tomorrow, 26 November, Sunday

    Time Temperature Precipitation Wind Pressure Humidity
    00:00 +6°C° 0.1 mm 2 mps 733 mmHg 89%
    01:00 +6°C° 0.1 mm 2 mps 733 mmHg 89%
    02:00 +6°C° 0.1 mm 2 mps 734 mmHg 89%
    03:00 +5°C° 0.1 mm 2 mps 734 mmHg 89%
    04:00 +5°C° 0.1 mm 2 mps 734 mmHg 89%
    05:00 +4°C° 0.3 mm 3 mps 735 mmHg 89%
    06:00 +3°C° 0.3 mm 3 mps 735 mmHg 88%
    07:00 +3°C° 0.3 mm 3 mps 736 mmHg 87%
    08:00 +3°C° 0.2 mm 3 mps 736 mmHg 85%
    09:00 +3°C° 0.2 mm 4 mps 737 mmHg 83%
    10:00 +3°C° 0.2 mm 4 mps 737 mmHg 81%
    11:00 +3°C° 0.1 mm 4 mps 738 mmHg 79%
    12:00 +3°C° 0.1 mm 4 mps 738 mmHg 77%
    13:00 +3°C° 0.1 mm 4 mps 738 mmHg 75%
    14:00 +3°C° 0 mm 3 mps 738 mmHg 76%
    15:00 +2°C° 0 mm 3 mps 739 mmHg 77%
    16:00 +3°C° 0 mm 2 mps 739 mmHg 79%
    17:00 +2°C° 0 mm 2 mps 739 mmHg 80%
    18:00 +2°C° 0 mm 2 mps 740 mmHg 82%
    19:00 +1°C° 0 mm 2 mps 740 mmHg 84%
    20:00 +1°C° 0 mm 2 mps 740 mmHg 84%
    21:00 +1°C° 0 mm 2 mps 741 mmHg 84%
    22:00 +1°C° 0 mm 2 mps 741 mmHg 84%
    23:00 -1°C° 0 mm 2 mps 741 mmHg 85%

    Day after tomorrow, 27 November, Monday

    Time Temperature Precipitation Wind Pressure Humidity
    00:00 -1°C° 0 mm 2 mps 741 mmHg 85%
    01:00 -1°C° 0 mm 2 mps 741 mmHg 86%
    02:00 -1°C° 0 mm 2 mps 741 mmHg 85%
    03:00 -1°C° 0 mm 2 mps 741 mmHg 85%
    04:00 -1°C° 0 mm 2 mps 741 mmHg 85%
    05:00 -1°C° 0 mm 2 mps 741 mmHg 84%
    06:00 -1°C° 0 mm 2 mps 741 mmHg 84%
    07:00 -1°C° 0 mm 2 mps 741 mmHg 84%
    08:00 +1°C° 0 mm 2 mps 742 mmHg 80%
    09:00 +2°C° 0 mm 2 mps 742 mmHg 76%
    10:00 +2°C° 0 mm 3 mps 742 mmHg 73%
    11:00 +3°C° 0 mm 2 mps 742 mmHg 71%
    12:00 +3°C° 0 mm 2 mps 742 mmHg 69%
    13:00 +4°C° 0 mm 2 mps 741 mmHg 67%
    14:00 +3°C° 0 mm 2 mps 741 mmHg 70%
    15:00 +2°C° 0 mm 2 mps 741 mmHg 74%
    16:00 +2°C° 0 mm 1 mps 741 mmHg 77%
    17:00 +1°C° 0 mm 2 mps 741 mmHg 79%
    18:00 +1°C° 0 mm 2 mps 741 mmHg 80%
    19:00 -1°C° 0 mm 2 mps 741 mmHg 82%
    20:00 -1°C° 0 mm 2 mps 741 mmHg 83%
    21:00 -1°C° 0 mm 2 mps 741 mmHg 83%
    22:00 -1°C° 0 mm 2 mps 740 mmHg 84%
    23:00 -2°C° 0 mm 2 mps 740 mmHg 84%

    28 November, Tuesday

    Time Temperature Precipitation Wind Pressure Humidity
    00:00 -2°C° 0 mm 2 mps 739 mmHg 85%
    01:00 -2°C° 0 mm 3 mps 739 mmHg 85%
    02:00 -2°C° 0 mm 3 mps 739 mmHg 85%
    03:00 -2°C° 0 mm 3 mps 738 mmHg 84%
    04:00 -2°C° 0 mm 3 mps 738 mmHg 84%
    05:00 -2°C° 0 mm 3 mps 738 mmHg 83%
    06:00 -2°C° 0 mm 3 mps 737 mmHg 82%
    07:00 -2°C° 0 mm 3 mps 737 mmHg 81%
    08:00 -2°C° 0 mm 4 mps 737 mmHg 77%
    09:00 -1°C° 0 mm 4 mps 737 mmHg 73%
    10:00 0°C° 0 mm 4 mps 736 mmHg 68%
    11:00 +1°C° 0 mm 4 mps 736 mmHg 66%
    12:00 +1°C° 0 mm 4 mps 735 mmHg 64%
    13:00 +3°C° 0 mm 4 mps 734 mmHg 62%
    14:00 +1°C° 0 mm 4 mps 734 mmHg 66%
    15:00 +1°C° 0 mm 3 mps 733 mmHg 69%
    16:00 0°C° 0 mm 3 mps 733 mmHg 72%
    17:00 0°C° 0 mm 3 mps 733 mmHg 72%
    18:00 0°C° 0 mm 3 mps 733 mmHg 72%
    19:00 0°C° 0 mm 3 mps 732 mmHg 71%
    20:00 0°C° 0 mm 3 mps 732 mmHg 70%
    21:00 0°C° 0 mm 3 mps 732 mmHg 69%
    22:00 0°C° 0 mm 3 mps 731 mmHg 68%
    23:00 0°C° 0 mm 3 mps 731 mmHg 67%

    29 November, Wednesday

    Time Temperature Precipitation Wind Pressure Humidity
    00:00 0°C° 0 mm 3 mps 731 mmHg 66%
    01:00 0°C° 0 mm 3 mps 730 mmHg 65%
    02:00 0°C° 0 mm 3 mps 730 mmHg 65%
    03:00 0°C° 0 mm 3 mps 730 mmHg 64%
    04:00 0°C° 0 mm 3 mps 729 mmHg 64%
    05:00 0°C° 0 mm 3 mps 729 mmHg 64%
    06:00 -1°C° 0 mm 4 mps 729 mmHg 64%
    07:00 -1°C° 0 mm 4 mps 729 mmHg 64%
    08:00 -1°C° 0 mm 5 mps 729 mmHg 64%
    09:00 -1°C° 0 mm 5 mps 729 mmHg 63%
    10:00 -1°C° 0 mm 6 mps 729 mmHg 62%
    11:00 -1°C° 0 mm 6 mps 729 mmHg 63%
    12:00 -1°C° 0 mm 6 mps 729 mmHg 64%
    13:00 +1°C° 0 mm 6 mps 728 mmHg 64%
    14:00 0°C° 0 mm 5 mps 728 mmHg 67%
    15:00 -1°C° 0 mm 5 mps 728 mmHg 70%
    16:00 -1°C° 0 mm 5 mps 729 mmHg 73%
    17:00 -1°C° 0 mm 4 mps 729 mmHg 74%
    18:00 -1°C° 0 mm 4 mps 729 mmHg 75%
    19:00 -2°C° 0 mm 4 mps 729 mmHg 75%
    20:00 0°C° 0 mm 3 mps 729 mmHg 76%
    21:00 0°C° 0 mm 3 mps 729 mmHg 77%
    22:00 +1°C° 0 mm 2 mps 729 mmHg 77%
    23:00 +1°C° 0.3 mm 2 mps 729 mmHg 80%

    30 November, Thursday

    Time Temperature Precipitation Wind Pressure Humidity
    00:00 +1°C° 0.3 mm 2 mps 729 mmHg 82%
    01:00 +1°C° 0.3 mm 2 mps 728 mmHg 85%
    02:00 +2°C° 1.2 mm 1 mps 728 mmHg 88%
    03:00 +2°C° 1.2 mm 1 mps 727 mmHg 90%
    04:00 +2°C° 1.2 mm 1 mps 727 mmHg 93%
    05:00 +2°C° 1.4 mm 1 mps 727 mmHg 93%
    06:00 +1°C° 1.4 mm 0 mps 726 mmHg 94%
    07:00 +1°C° 1.4 mm 0 mps 726 mmHg 95%
    08:00 +1°C° 1.2 mm 0 mps 726 mmHg 96%
    09:00 +1°C° 1.2 mm 0 mps 726 mmHg 97%
    10:00 +1°C° 1.2 mm 0 mps 725 mmHg 98%
    11:00 +2°C° 0.5 mm 1 mps 725 mmHg 98%
    12:00 +2°C° 0.5 mm 1 mps 725 mmHg 98%
    13:00 +2°C° 0.5 mm 1 mps 725 mmHg 98%
    14:00 +2°C° 0.2 mm 1 mps 725 mmHg 97%
    15:00 +2°C° 0.2 mm 1 mps 726 mmHg 97%
    16:00 +2°C° 0.2 mm 1 mps 726 mmHg 96%
    17:00 +1°C° 0 mm 1 mps 726 mmHg 95%
    18:00 0°C° 0 mm 1 mps 727 mmHg 95%
    19:00 0°C° 0 mm 1 mps 727 mmHg 94%
    20:00 0°C° 0 mm 1 mps 727 mmHg 93%
    21:00 -2°C° 0 mm 2 mps 728 mmHg 93%
    22:00 -3°C° 0 mm 2 mps 728 mmHg 92%
    23:00 -3°C° 0 mm 2 mps 728 mmHg 92%
    Show more